"Pseudo-MPEC" for P21WMBG

Created 2024 Aug 7 20:22:07 UT using Find_Orb

Click here for an explanation of pseudo-MPECs

 
 Astrometry: 
     P21WMBG* C2024 08 01.59174401 57 24.646-09 04 52.45   ~81Gq 21.99wXNEOCPF52
     P21WMBG  C2024 08 01.60228001 57 24.837-09 04 56.28   ~81Gq 22.12wXNEOCPF52
     P21WMBG  C2024 08 01.61283201 57 25.006-09 04 59.51   ~81Gq 22.67wXNEOCPF52
     P21WMBG 3C2024 08 03.53864701 57 55.556-09 15 10.34   ~83Dq 22.12GVNEOCPT14
     P21WMBG 3C2024 08 03.53962201 57 55.565-09 15 10.62   ~83Dq 22.16GVNEOCPT14
     P21WMBG 3C2024 08 03.54061801 57 55.582-09 15 10.91   ~83Dq 22.17GVNEOCPT14
     P21WMBG  C2024 08 07.42581001 58 48.952-09 36 42.23   ~87B7 22.0 GVNEOCPH01
     P21WMBG  C2024 08 07.43155401 58 49.014-09 36 44.21   ~87B7 22.0 GVNEOCPH01
     P21WMBG  C2024 08 07.44020801 58 49.120-09 36 47.15   ~87B7 22.1 GVNEOCPH01
     P21WMBG  C2024 08 07.44934501 58 49.227-09 36 50.37   ~87B7 21.9 GVNEOCPH01

Station data:
(F52) Pan-STARRS 2, Haleakala  (N20.707382 W156.255910)  US/Hawaii.
   Observers J. Bulger, T. Dukes, T. Lowe, A. Schultz, M. Willman. Measurers
   K. Chambers, S. Chastel, T. de Boer, L. Denneau, J. Fairlamb, H.
   Flewelling, M. Huber, C.-C. Lin, E. Magnier, Y. Ramanjooloo, R. Wainscoat,
   R. Weryk. 1.8-m Ritchey-Chrétien + CCD.
(H01) Magdalena Ridge Observatory, Socorro  (N33.984833 W107.189333)  US/New
   Mexico.  Observers W. H. Ryan, E. V. Ryan. Measurer W. H. Ryan. 2.4-m
   f/8.9 reflector + CCD.
(T14) Mauna Kea-UH/Tholen NEO Follow-Up (CFHT)  (N19.825252 W155.468876)
   US/Hawaii.  Observer R. Weryk. 3.6-m Canada-France-Hawaii Telescope.

Orbital elements:  P21WMBG
   Perihelion 2023 Mar 3.93172 +/- 62.6 TT = 22:21:40 (JD 2460007.43172)
Epoch 2024 Aug  7.0 TT = JDT 2460529.5   Ju: 0.2038              AutoNEOCP
M  43.27617767 +/- 4.7              (J2000 ecliptic)
n   0.08289371 +/- 0.00246          Peri.  167.61594 +/- 7
a   5.20940739 +/- 0.103            Node   158.49156 +/- 0.22
e   0.0833772 +/- 0.0303            Incl.   30.96467 +/- 0.13
P  11.89002                H 14.85  G  0.15   U  8.7
q 4.77506145 +/- 0.079    Q 5.64375332 +/- 0.265
From 10 observations 2024 Aug. 1-7; mean residual 0".12
Residuals in arcseconds: 
240801 F52  .25-  .33+    240803 T14  .04-  .00     240807 H01  .02+  .03+    
240801 F52  .11+  .20-    240803 T14  .00   .03+    240807 H01  .02+  .06-    
240801 F52  .14+  .13-    240807 H01  .02+  .02+    
240803 T14  .04+  .03-    240807 H01  .06-  .01+    

Ephemerides (geocentric):
Date (UTC) HH   RA             Dec           delta  r     elong  mag " sig PA
---- --------  ------------   ------------  ------ ------ -----  --- --------
2024 08 07 20  01 58 53.860   -09 39 00.71  4.4718 4.9122 110.0 22.3 .250  60
2024 08 07 21  01 58 54.360   -09 39 15.05  4.4713 4.9122 110.1 22.3 .256  60
2024 08 07 22  01 58 54.859   -09 39 29.40  4.4707 4.9123 110.1 22.3 .263  60
2024 08 07 23  01 58 55.357   -09 39 43.75  4.4702 4.9123 110.1 22.3 .269  60
2024 08 08 00  01 58 55.853   -09 39 58.12  4.4697 4.9123 110.2 22.3 .275  60
2024 08 08 01  01 58 56.348   -09 40 12.49  4.4691 4.9123 110.2 22.3 .282  60
2024 08 08 02  01 58 56.842   -09 40 26.87  4.4686 4.9123 110.2 22.3 .288  60
2024 08 08 03  01 58 57.334   -09 40 41.26  4.4681 4.9124 110.3 22.2 .295  60
2024 08 08 04  01 58 57.826   -09 40 55.65  4.4675 4.9124 110.3 22.2 .301  60
2024 08 08 05  01 58 58.316   -09 41 10.06  4.4670 4.9124 110.3 22.2 .308  60
2024 08 08 06  01 58 58.804   -09 41 24.47  4.4665 4.9124 110.4 22.2 .315  60
2024 08 08 07  01 58 59.292   -09 41 38.90  4.4660 4.9124 110.4 22.2 .322  60
2024 08 08 08  01 58 59.778   -09 41 53.33  4.4654 4.9125 110.5 22.2 .329  60
2024 08 08 09  01 59 00.263   -09 42 07.77  4.4649 4.9125 110.5 22.2 .336  60
2024 08 08 10  01 59 00.746   -09 42 22.21  4.4644 4.9125 110.5 22.2 .343  60
2024 08 08 11  01 59 01.228   -09 42 36.67  4.4638 4.9125 110.6 22.2 .350  60
2024 08 08 12  01 59 01.709   -09 42 51.13  4.4633 4.9126 110.6 22.2 .357  60
2024 08 08 13  01 59 02.189   -09 43 05.61  4.4628 4.9126 110.6 22.2 .364  59
2024 08 08 14  01 59 02.667   -09 43 20.09  4.4622 4.9126 110.7 22.2 .372  59
2024 08 08 15  01 59 03.144   -09 43 34.58  4.4617 4.9126 110.7 22.2 .379  59
2024 08 08 16  01 59 03.620   -09 43 49.08  4.4612 4.9126 110.7 22.2 .386  59
2024 08 08 17  01 59 04.095   -09 44 03.58  4.4607 4.9127 110.8 22.2 .394  59
2024 08 08 18  01 59 04.568   -09 44 18.10  4.4601 4.9127 110.8 22.2 .402  59
2024 08 08 19  01 59 05.040   -09 44 32.62  4.4596 4.9127 110.8 22.2 .409  59
2024 08 08 20  01 59 05.510   -09 44 47.15  4.4591 4.9127 110.9 22.2 .417  59
2024 08 08 21  01 59 05.980   -09 45 01.69  4.4585 4.9127 110.9 22.2 .425  59
2024 08 08 22  01 59 06.448   -09 45 16.24  4.4580 4.9128 111.0 22.2 .433  59
2024 08 08 23  01 59 06.915   -09 45 30.80  4.4575 4.9128 111.0 22.2 .441  59
2024 08 09 00  01 59 07.380   -09 45 45.36  4.4570 4.9128 111.0 22.2 .449  59
2024 08 09 01  01 59 07.844   -09 45 59.94  4.4564 4.9128 111.1 22.2 .457  59
2024 08 09 02  01 59 08.307   -09 46 14.52  4.4559 4.9128 111.1 22.2 .465  59
2024 08 09 03  01 59 08.769   -09 46 29.11  4.4554 4.9129 111.1 22.2 .473  59
2024 08 09 04  01 59 09.229   -09 46 43.70  4.4549 4.9129 111.2 22.2 .481  59
2024 08 09 05  01 59 09.688   -09 46 58.31  4.4543 4.9129 111.2 22.2 .490  59
2024 08 09 06  01 59 10.146   -09 47 12.93  4.4538 4.9129 111.2 22.2 .498  59
2024 08 09 07  01 59 10.602   -09 47 27.55  4.4533 4.9129 111.3 22.2 .507  59
2024 08 09 08  01 59 11.058   -09 47 42.18  4.4528 4.9130 111.3 22.2 .515  59
2024 08 09 09  01 59 11.511   -09 47 56.82  4.4522 4.9130 111.4 22.2 .524  59
2024 08 09 10  01 59 11.964   -09 48 11.47  4.4517 4.9130 111.4 22.2 .533  59
2024 08 09 11  01 59 12.415   -09 48 26.12  4.4512 4.9130 111.4 22.2 .541  59
2024 08 09 12  01 59 12.865   -09 48 40.79  4.4507 4.9130 111.5 22.2 .550  59
2024 08 09 13  01 59 13.314   -09 48 55.46  4.4501 4.9131 111.5 22.2 .559  59
2024 08 09 14  01 59 13.761   -09 49 10.14  4.4496 4.9131 111.5 22.2 .568  59
2024 08 09 15  01 59 14.207   -09 49 24.83  4.4491 4.9131 111.6 22.2 .577  59
2024 08 09 16  01 59 14.652   -09 49 39.53  4.4486 4.9131 111.6 22.2 .586  59
2024 08 09 17  01 59 15.096   -09 49 54.23  4.4480 4.9131 111.6 22.2 .596  59
2024 08 09 18  01 59 15.538   -09 50 08.95  4.4475 4.9132 111.7 22.2 .605  59
2024 08 09 19  01 59 15.979   -09 50 23.67  4.4470 4.9132 111.7 22.2 .614  59